Location: Newark
(50.4375°N, 16.6489°E)
Time: 15:47:30
(UTC+00:00)

Envisat - Pass Details

Date: 17 September 2019
Orbit: 764 x 766 km, 98.1° (Epoch: 19 October)

Event Time Altitude Azimuth Distance (km) Brightness Sun altitude
Rises 17:55:25 0° 197° (SSW) 3,222 6.3 -9.0°
Reaches altitude 10° 17:58:03 10° 210° (SSW) 2,301 5.7 -9.4°
Maximum altitude 18:02:20 27° 267° (W) 1,448 5.4 -10.0°
Drops below altitude 10° 18:06:38 10° 325° (NW) 2,315 6.3 -10.7°
Sets 18:09:18 0° 338° (NNW) 3,247 6.9 -11.1°
